Regional Weather Roundup
Issued by NWS

Home | Current Version | Previous Version | Graphics & Text | Print | Product List | Glossary On
Versions: 1 2 3 4 5 6 7 8 9 10 11 12 13 14 15 16 17 18 19 20 21 22 23 24 25 26 27 28 29 30 31 32 33 34 35 36 37 38 39 40 41 42 43 44 45 46 47 48 49 50
000
ASUS44 KMEG 230910
RWRTN
TENNESSEE HOURLY STATE WEATHER ROUNDUP
NATIONAL WEATHER SERVICE MEMPHIS TN
400 AM CDT THU OCT 23 2014

TNZ002-004-019-021-049-052-054-088>092-231000-
WEST TENNESSEE

CITY           SKY/WX    TMP DP  RH WIND       PRES   REMARKS
MEMPHIS INTL   PTCLDY    51  43  74 NE9       30.17S
NWS MEMPHIS      N/A     43 N/A N/A MISG        N/A
JACKSON        CLEAR     40  37  89 CALM      30.19S FOG
DYERSBURG      CLEAR     43  32  65 NE7       30.21S
UNION CITY     CLEAR     37  37 100 CALM      30.19F
PARIS          CLEAR     39  37  93 E3        30.21S
HUNTINGDON     CLEAR     40  38  93 NE5       30.21F
LEXINGTON      CLEAR     37  37 100 CALM      30.18F
SAVANNAH       CLEAR     36  36 100 CALM      30.19S
$$

TNZ008-025-027-028-033-062-065-066-231000-
NORTH MIDDLE TENNESSEE

CITY           SKY/WX    TMP DP  RH WIND       PRES   REMARKS
NASHVILLE      CLEAR     44  41  89 N3        30.22R
CLARKSVILLE    CLEAR     40  38  93 CALM      30.23R
SMYRNA         CLEAR     40  40 100 CALM      30.23R
COOKEVILLE     CLEAR     32  32 100 CALM      30.20R
CROSSVILLE     CLEAR     38  35  89 NE6       30.18S WCI  33
$$

TNZ061-075-076-078-094-096-097-231000-
SOUTH MIDDLE TENNESSEE

CITY           SKY/WX    TMP DP  RH WIND       PRES   REMARKS
FAYETTEVILLE   CLEAR     39  37  93 NE8       30.17R WCI  34
TULLAHOMA      CLEAR     39  37  93 NE3       30.18S
WINCHESTER     CLEAR     37  37 100 CALM      30.18R
MCMINNVILLE    CLEAR     37  37 100 CALM      30.19R
COLUMBIA       CLEAR    N/A N/A N/A CALM      30.18S
SHELBYVILLE    CLEAR     37  37 100 CALM      30.20S
$$

TNZ017-018-042-046-047-231000-
NORTHEAST TENNESSEE

CITY           SKY/WX    TMP DP  RH WIND       PRES   REMARKS
TRI CITIES     CLOUDY    48  39  71 N6        30.18S
ELIZABETHTON   CLOUDY    45  37  76 CALM      30.17S
$$

TNZ012-013-036-069-073-074-231000-
CENTRAL EAST TENNESSEE

CITY           SKY/WX    TMP DP  RH WIND       PRES   REMARKS
KNOXVILLE      PTCLDY    41  38  89 NE6       30.17S
OAK RIDGE      CLOUDY    49  42  77 CALM      30.21R
GATLINBURG     PTSUNNY   39  37  93 CALM      30.18S
MORRISTOWN     CLOUDY    46  41  81 CALM      30.19S
$$

TNZ083-085-099-231000-
SOUTHEAST TENNESSEE

CITY           SKY/WX    TMP DP  RH WIND       PRES   REMARKS
CHATTANOOGA    CLEAR     48  40  73 N8        30.17S
$$

SKY/WX REPORTED AS FAIR MEANS FEW OR NO CLOUDS BELOW
12 THOUSAND FEET.




USA.gov is the U.S. government's official web portal to all federal, state and local government web resources and services.